sat.trackr.live / text

‹ back to catalog

STARLINK-5513

NORAD 57251 · 2023-094AK

PAYLOAD ACTIVE UNKNOWN

§ Identity

Operator
Country
US
Launch date
2023-07-07
Launch site
AFWTR
Launch vehicle
Mass (kg)
RCS (m²)

Purposes: comms

External: N2YO · Heavens-Above · Gunter

§ Orbital elements

Epoch: 2026-05-25T03:14:13.770240Z

Period
94.27 min
Inclination
43.0040°
Eccentricity
0.0002049
Mean motion
15.27578650 rev/d
Perigee alt
481.6 km
Apogee alt
484.5 km
Semi-major
6,861.2 km
B*
5.0135e-5
RAAN
307.9612°
Arg perigee
269.6593°
Mean anomaly
90.4024°
Rev number
15,893

§ Raw data

STARLINK-55131 57251U 23094AK  26145.13488160  .00001117  00000+0  50135-4 0  99942 57251  43.0040 307.9612 0002049 269.6593  90.4024 15.27578650158937

JSON: /api/v1/satellites/57251 · /tle

For live sub-satellite position, see the globe view (requires WebGL).

§ Visibility from observer

Set your observer location to see the next 7 days of passes ≥ 10°. The values pass through the URL so the page stays shareable.

No JS? Fill the form by hand. The geolocation button needs JavaScript.